Location: Seven Kings
(51.5667°N, 0.1000°E)
Time: 12:11:31
(UTC+00:00)

USA 305 - Pass Details

Date: 29 October 2020
Orbit: 569 x 577 km, 54.0° (Epoch: 22 November)

Event Time Altitude Azimuth Distance (km) Brightness Sun altitude
Rises 17:47:49 0° 291° (WNW) 2,789 7.6 -11.4°
Reaches altitude 10° 17:50:05 10° 289° (WNW) 1,887 6.6 -11.8°
Maximum altitude 17:54:21 70° 207° (SSW) 615 3.1 -12.5°
Enters shadow 17:58:08 13° 124° (SE) 1,691 4.9 -13.0°
